Time,TemperatureF,DewpointF,PressureIn,WindDirection,WindDirectionDegrees,WindSpeedMPH,WindSpeedGustMPH,Humidity,HourlyPrecipIn,Conditions,Clouds,dailyrainin,SoftwareType,DateUTC
2013-09-12 00:00:00,-999.0,-99.9,29.97,North,-999,-999.0,-999.0,-999,-99.99,,,0.00,weatherlink.com 1.10,2013-09-12 04:00:00,
2013-09-12 00:15:00,-999.0,-99.9,29.97,North,-999,-999.0,-999.0,-999,-99.99,,,0.00,weatherlink.com 1.10,2013-09-12 04:15:00,
2013-09-12 00:30:00,-999.0,-99.9,29.96,North,-999,-999.0,-999.0,-999,-99.99,,,0.00,weatherlink.com 1.10,2013-09-12 04:30:00,
2013-09-12 00:45:00,-999.0,-99.9,29.95,North,-999,-999.0,-999.0,-999,-99.99,,,0.00,weatherlink.com 1.10,2013-09-12 04:45:00,
2013-09-12 01:00:00,-999.0,-99.9,29.94,North,-999,-999.0,-999.0,-999,-99.99,,,0.00,weatherlink.com 1.10,2013-09-12 05:00:00,
2013-09-12 01:15:00,-999.0,-99.9,29.95,North,-999,-999.0,-999.0,-999,-99.99,,,0.00,weatherlink.com 1.10,2013-09-12 05:15:00,
2013-09-12 01:30:00,-999.0,-99.9,29.95,North,-999,-999.0,-999.0,-999,-99.99,,,0.00,weatherlink.com 1.10,2013-09-12 05:30:00,
2013-09-12 01:45:00,-999.0,-99.9,29.94,North,-999,-999.0,-999.0,-999,-99.99,,,0.00,weatherlink.com 1.10,2013-09-12 05:45:00,
2013-09-12 02:00:00,-999.0,-99.9,29.94,North,-999,-999.0,-999.0,-999,-99.99,,,0.00,weatherlink.com 1.10,2013-09-12 06:00:00,
2013-09-12 02:15:00,-999.0,-99.9,29.93,North,-999,-999.0,-999.0,-999,-99.99,,,0.00,weatherlink.com 1.10,2013-09-12 06:15:00,
2013-09-12 02:30:00,-999.0,-99.9,29.93,North,-999,-999.0,-999.0,-999,-99.99,,,0.00,weatherlink.com 1.10,2013-09-12 06:30:00,
2013-09-12 02:45:00,-999.0,-99.9,29.93,North,-999,-999.0,-999.0,-999,-99.99,,,0.00,weatherlink.com 1.10,2013-09-12 06:45:00,
2013-09-12 03:00:00,-999.0,-99.9,29.93,North,-999,-999.0,-999.0,-999,-99.99,,,0.00,weatherlink.com 1.10,2013-09-12 07:00:00,
2013-09-12 03:15:00,-999.0,-99.9,29.93,North,-999,-999.0,-999.0,-999,-99.99,,,0.00,weatherlink.com 1.10,2013-09-12 07:15:00,
2013-09-12 03:30:00,-999.0,-99.9,29.92,North,-999,-999.0,-999.0,-999,-99.99,,,0.00,weatherlink.com 1.10,2013-09-12 07:30:00,
2013-09-12 03:45:00,-999.0,-99.9,29.91,North,-999,-999.0,-999.0,-999,-99.99,,,0.00,weatherlink.com 1.10,2013-09-12 07:45:00,
2013-09-12 04:00:00,-999.0,-99.9,29.91,North,-999,-999.0,-999.0,-999,-99.99,,,0.00,weatherlink.com 1.10,2013-09-12 08:00:00,
2013-09-12 04:15:00,-999.0,-99.9,29.91,North,-999,-999.0,-999.0,-999,-99.99,,,0.00,weatherlink.com 1.10,2013-09-12 08:15:00,
2013-09-12 04:30:00,-999.0,-99.9,29.91,North,-999,-999.0,-999.0,-999,-99.99,,,0.00,weatherlink.com 1.10,2013-09-12 08:30:00,
2013-09-12 04:45:00,-999.0,-99.9,29.91,North,-999,-999.0,-999.0,-999,-99.99,,,0.00,weatherlink.com 1.10,2013-09-12 08:45:00,
2013-09-12 05:00:00,-999.0,-99.9,29.91,North,-999,-999.0,-999.0,-999,-99.99,,,0.00,weatherlink.com 1.10,2013-09-12 09:00:00,
2013-09-12 05:15:00,-999.0,-99.9,29.91,North,-999,-999.0,-999.0,-999,-99.99,,,0.00,weatherlink.com 1.10,2013-09-12 09:15:00,
2013-09-12 05:30:00,-999.0,-99.9,29.91,North,-999,-999.0,-999.0,-999,-99.99,,,0.00,weatherlink.com 1.10,2013-09-12 09:30:00,
2013-09-12 05:45:00,-999.0,-99.9,29.92,North,-999,-999.0,-999.0,-999,-99.99,,,0.00,weatherlink.com 1.10,2013-09-12 09:45:00,
2013-09-12 06:00:00,-999.0,-99.9,29.92,North,-999,-999.0,-999.0,-999,-99.99,,,0.00,weatherlink.com 1.10,2013-09-12 10:00:00,
2013-09-12 06:15:00,-999.0,-99.9,29.93,North,-999,-999.0,-999.0,-999,-99.99,,,0.00,weatherlink.com 1.10,2013-09-12 10:15:00,
2013-09-12 06:30:00,-999.0,-99.9,29.93,North,-999,-999.0,-999.0,-999,-99.99,,,0.00,weatherlink.com 1.10,2013-09-12 10:30:00,
2013-09-12 06:45:00,-999.0,-99.9,29.93,North,-999,-999.0,-999.0,-999,-99.99,,,0.00,weatherlink.com 1.10,2013-09-12 10:45:00,
2013-09-12 07:00:00,-999.0,-99.9,29.93,North,-999,-999.0,-999.0,-999,-99.99,,,0.00,weatherlink.com 1.10,2013-09-12 11:00:00,
2013-09-12 07:15:00,-999.0,-99.9,29.93,North,-999,-999.0,-999.0,-999,-99.99,,,0.00,weatherlink.com 1.10,2013-09-12 11:15:00,
2013-09-12 07:30:00,-999.0,-99.9,29.93,North,-999,-999.0,-999.0,-999,-99.99,,,0.00,weatherlink.com 1.10,2013-09-12 11:30:00,
2013-09-12 07:45:00,-999.0,-99.9,29.93,North,-999,-999.0,-999.0,-999,-99.99,,,0.00,weatherlink.com 1.10,2013-09-12 11:45:00,
2013-09-12 08:00:00,-999.0,-99.9,29.93,North,-999,-999.0,-999.0,-999,-99.99,,,0.00,weatherlink.com 1.10,2013-09-12 12:00:00,
2013-09-12 08:15:00,-999.0,-99.9,29.94,North,-999,-999.0,-999.0,-999,-99.99,,,0.00,weatherlink.com 1.10,2013-09-12 12:15:00,
2013-09-12 08:30:00,-999.0,-99.9,29.95,North,-999,-999.0,-999.0,-999,-99.99,,,0.00,weatherlink.com 1.10,2013-09-12 12:30:00,
2013-09-12 08:45:00,-999.0,-99.9,29.95,North,-999,-999.0,-999.0,-999,-99.99,,,0.00,weatherlink.com 1.10,2013-09-12 12:45:00,
2013-09-12 09:00:00,-999.0,-99.9,29.95,North,-999,-999.0,-999.0,-999,-99.99,,,0.00,weatherlink.com 1.10,2013-09-12 13:00:00,
2013-09-12 09:15:00,-999.0,-99.9,29.95,North,-999,-999.0,-999.0,-999,-99.99,,,0.00,weatherlink.com 1.10,2013-09-12 13:15:00,
2013-09-12 09:30:00,-999.0,-99.9,29.95,North,-999,-999.0,-999.0,-999,-99.99,,,0.00,weatherlink.com 1.10,2013-09-12 13:30:00,
2013-09-12 09:45:00,-999.0,-99.9,29.95,North,-999,-999.0,-999.0,-999,-99.99,,,0.00,weatherlink.com 1.10,2013-09-12 13:45:00,
2013-09-12 10:00:00,-999.0,-99.9,29.95,North,-999,-999.0,-999.0,-999,-99.99,,,0.00,weatherlink.com 1.10,2013-09-12 14:00:00,
2013-09-12 10:15:00,-999.0,-99.9,29.95,North,-999,-999.0,-999.0,-999,-99.99,,,0.00,weatherlink.com 1.10,2013-09-12 14:15:00,
2013-09-12 10:30:00,-999.0,-99.9,29.95,North,-999,-999.0,-999.0,-999,-99.99,,,0.00,weatherlink.com 1.10,2013-09-12 14:30:00,
2013-09-12 10:45:00,81.1,77.0,29.95,South,169,0.0,-999.0,87,-99.99,,,0.00,weatherlink.com 1.10,2013-09-12 14:45:00,
2013-09-12 11:00:00,81.6,77.0,29.95,South,169,0.0,-999.0,87,-99.99,,,0.00,weatherlink.com 1.10,2013-09-12 15:00:00,
2013-09-12 11:15:00,82.4,78.0,29.95,South,169,0.0,-999.0,86,-99.99,,,0.00,weatherlink.com 1.10,2013-09-12 15:15:00,
2013-09-12 11:30:00,82.4,76.0,29.95,SSE,149,0.0,-999.0,81,-99.99,,,0.00,weatherlink.com 1.10,2013-09-12 15:30:00,
2013-09-12 11:45:00,83.8,74.0,29.95,South,181,1.0,-999.0,73,-99.99,,,0.00,weatherlink.com 1.10,2013-09-12 15:45:00,
2013-09-12 12:00:00,84.1,73.0,29.94,South,181,1.0,-999.0,69,-99.99,,,0.00,weatherlink.com 1.10,2013-09-12 16:00:00,
2013-09-12 12:15:00,84.7,73.0,29.94,South,181,1.0,-999.0,67,-99.99,,,0.00,weatherlink.com 1.10,2013-09-12 16:15:00,
2013-09-12 12:30:00,84.9,74.0,29.94,SSE,160,0.0,-999.0,69,-99.99,,,0.00,weatherlink.com 1.10,2013-09-12 16:30:00,
2013-09-12 12:45:00,84.1,74.0,29.94,SSE,155,0.0,-999.0,72,-99.99,,,0.00,weatherlink.com 1.10,2013-09-12 16:45:00,
2013-09-12 13:00:00,84.3,75.0,29.94,SSE,155,0.0,-999.0,73,-99.99,,,0.00,weatherlink.com 1.10,2013-09-12 17:00:00,
2013-09-12 13:15:00,84.1,76.0,29.93,East,89,0.0,-999.0,77,-99.99,,,0.00,weatherlink.com 1.10,2013-09-12 17:15:00,
2013-09-12 13:30:00,84.1,77.0,29.93,ENE,59,0.0,-999.0,79,-99.99,,,0.00,weatherlink.com 1.10,2013-09-12 17:30:00,
2013-09-12 13:45:00,84.1,77.0,29.93,SE,125,0.0,-999.0,80,-99.99,,,0.00,weatherlink.com 1.10,2013-09-12 17:45:00,
2013-09-12 14:00:00,84.0,77.0,29.92,SE,136,0.0,-999.0,80,-99.99,,,0.00,weatherlink.com 1.10,2013-09-12 18:00:00,
2013-09-12 14:15:00,84.3,77.0,29.91,SE,140,0.0,-999.0,79,-99.99,,,0.00,weatherlink.com 1.10,2013-09-12 18:15:00,
2013-09-12 14:30:00,84.1,77.0,29.91,East,90,2.0,-999.0,80,-99.99,,,0.00,weatherlink.com 1.10,2013-09-12 18:30:00,
2013-09-12 14:45:00,84.7,78.0,29.90,NE,54,0.0,-999.0,79,-99.99,,,0.00,weatherlink.com 1.10,2013-09-12 18:45:00,
2013-09-12 15:00:00,84.9,78.0,29.90,SSE,166,2.0,-999.0,79,-99.99,,,0.00,weatherlink.com 1.10,2013-09-12 19:00:00,
2013-09-12 15:15:00,84.3,77.0,29.88,NE,55,3.0,-999.0,79,-99.99,,,0.00,weatherlink.com 1.10,2013-09-12 19:15:00,
2013-09-12 15:30:00,85.1,78.0,29.88,ENE,57,0.0,-999.0,79,-99.99,,,0.00,weatherlink.com 1.10,2013-09-12 19:30:00,
2013-09-12 15:45:00,84.9,78.0,29.87,ENE,59,1.0,-999.0,79,-99.99,,,0.00,weatherlink.com 1.10,2013-09-12 19:45:00,
2013-09-12 16:00:00,84.5,78.0,29.87,NE,55,1.0,-999.0,80,-99.99,,,0.00,weatherlink.com 1.10,2013-09-12 20:00:00,
2013-09-12 16:15:00,84.1,78.0,29.86,NE,54,2.0,-999.0,81,-99.99,,,0.00,weatherlink.com 1.10,2013-09-12 20:15:00,
2013-09-12 16:30:00,84.1,77.0,29.86,ENE,68,0.0,-999.0,80,-99.99,,,0.00,weatherlink.com 1.10,2013-09-12 20:30:00,
2013-09-12 16:45:00,84.7,78.0,29.85,ENE,63,0.0,-999.0,79,-99.99,,,0.00,weatherlink.com 1.10,2013-09-12 20:45:00,
2013-09-12 17:00:00,84.5,77.0,29.85,ENE,65,0.0,-999.0,79,-99.99,,,0.00,weatherlink.com 1.10,2013-09-12 21:00:00,
2013-09-12 17:15:00,84.5,77.0,29.84,ENE,69,0.0,-999.0,79,-99.99,,,0.00,weatherlink.com 1.10,2013-09-12 21:15:00,
2013-09-12 17:45:00,84.5,77.0,29.84,SE,145,0.0,-999.0,78,-99.99,,,0.00,weatherlink.com 1.10,2013-09-12 21:45:00,
2013-09-12 18:00:00,84.3,77.0,29.84,ESE,113,0.0,-999.0,78,-99.99,,,0.00,weatherlink.com 1.10,2013-09-12 22:00:00,
2013-09-12 18:15:00,84.1,77.0,29.85,East,93,0.0,-999.0,78,-99.99,,,0.00,weatherlink.com 1.10,2013-09-12 22:15:00,
2013-09-12 18:30:00,84.0,77.0,29.85,ENE,57,0.0,-999.0,78,-99.99,,,0.00,weatherlink.com 1.10,2013-09-12 22:30:00,
2013-09-12 18:45:00,-999.0,-99.9,29.85,North,-999,-999.0,-999.0,-999,-99.99,,,0.00,weatherlink.com 1.10,2013-09-12 22:45:00,
2013-09-12 19:00:00,-999.0,-99.9,29.85,North,-999,-999.0,-999.0,-999,-99.99,,,0.00,weatherlink.com 1.10,2013-09-12 23:00:00,
2013-09-12 19:15:00,-999.0,-99.9,29.85,North,-999,-999.0,-999.0,-999,-99.99,,,0.00,weatherlink.com 1.10,2013-09-12 23:15:00,
2013-09-12 19:30:00,-999.0,-99.9,29.86,North,-999,-999.0,-999.0,-999,-99.99,,,0.00,weatherlink.com 1.10,2013-09-12 23:30:00,
2013-09-12 19:45:00,-999.0,-99.9,29.85,North,-999,-999.0,-999.0,-999,-99.99,,,0.00,weatherlink.com 1.10,2013-09-12 23:45:00,
2013-09-12 20:00:00,-999.0,-99.9,29.87,North,-999,-999.0,-999.0,-999,-99.99,,,0.00,weatherlink.com 1.10,2013-09-13 00:00:00,
2013-09-12 20:15:00,-999.0,-99.9,29.87,North,-999,-999.0,-999.0,-999,-99.99,,,0.00,weatherlink.com 1.10,2013-09-13 00:15:00,
2013-09-12 20:30:00,-999.0,-99.9,29.87,North,-999,-999.0,-999.0,-999,-99.99,,,0.00,weatherlink.com 1.10,2013-09-13 00:30:00,
2013-09-12 20:45:00,-999.0,-99.9,29.87,North,-999,-999.0,-999.0,-999,-99.99,,,0.00,weatherlink.com 1.10,2013-09-13 00:45:00,
2013-09-12 21:00:00,-999.0,-99.9,29.87,North,-999,-999.0,-999.0,-999,-99.99,,,0.00,weatherlink.com 1.10,2013-09-13 01:00:00,
2013-09-12 21:15:00,-999.0,-99.9,29.87,North,-999,-999.0,-999.0,-999,-99.99,,,0.00,weatherlink.com 1.10,2013-09-13 01:15:00,
2013-09-12 21:30:00,-999.0,-99.9,29.88,North,-999,-999.0,-999.0,-999,-99.99,,,0.00,weatherlink.com 1.10,2013-09-13 01:30:00,
2013-09-12 21:45:00,-999.0,-99.9,29.88,North,-999,-999.0,-999.0,-999,-99.99,,,0.00,weatherlink.com 1.10,2013-09-13 01:45:00,
2013-09-12 22:00:00,-999.0,-99.9,29.88,North,-999,-999.0,-999.0,-999,-99.99,,,0.00,weatherlink.com 1.10,2013-09-13 02:00:00,
2013-09-12 22:15:00,-999.0,-99.9,29.88,North,-999,-999.0,-999.0,-999,-99.99,,,0.00,weatherlink.com 1.10,2013-09-13 02:15:00,
2013-09-12 22:30:00,-999.0,-99.9,29.87,North,-999,-999.0,-999.0,-999,-99.99,,,0.00,weatherlink.com 1.10,2013-09-13 02:30:00,
2013-09-12 22:45:00,-999.0,-99.9,29.87,North,-999,-999.0,-999.0,-999,-99.99,,,0.00,weatherlink.com 1.10,2013-09-13 02:45:00,
2013-09-12 23:00:00,-999.0,-99.9,29.87,North,-999,-999.0,-999.0,-999,-99.99,,,0.00,weatherlink.com 1.10,2013-09-13 03:00:00,
2013-09-12 23:15:00,-999.0,-99.9,29.87,North,-999,-999.0,-999.0,-999,-99.99,,,0.00,weatherlink.com 1.10,2013-09-13 03:15:00,
2013-09-12 23:30:00,-999.0,-99.9,29.86,North,-999,-999.0,-999.0,-999,-99.99,,,0.00,weatherlink.com 1.10,2013-09-13 03:30:00,
2013-09-12 23:45:00,-999.0,-99.9,29.86,North,-999,-999.0,-999.0,-999,-99.99,,,0.00,weatherlink.com 1.10,2013-09-13 03:45:00,